This is the latest recevied weather packets stored in our database for station/object EA4BHK-10. If no packets are shown the sender has not sent any weather packets the latest 10 day(s).
| Time | Temp. | Humidity | Pressure | Rain* | Wind** | Luminosity | Snow |
|---|---|---|---|---|---|---|---|
| 1787914363 | 24.44° C | 24% | 1019.3 hPa | - | - | - | - |
| 1787913463 | 23.33° C | 26% | 1019.8 hPa | - | - | - | - |
| 1787912563 | 22.78° C | 29% | 1020.2 hPa | - | - | - | - |
| 1787911663 | 22.22° C | 29% | 1020.3 hPa | - | - | - | - |
| 1787910763 | 21.67° C | 30% | 1020.7 hPa | - | - | - | - |
| 1787909863 | 21.11° C | 33% | 1021 hPa | - | - | - | - |
| 1787908963 | 21.11° C | 33% | 1021 hPa | - | - | - | - |
| 1787908063 | 20.56° C | 35% | 1021.1 hPa | - | - | - | - |
| 1787907163 | 20° C | 39% | 1021.2 hPa | - | - | - | - |
| 1787906263 | 19.44° C | 41% | 1021.4 hPa | - | - | - | - |
| 1787905363 | 18.89° C | 43% | 1021.7 hPa | - | - | - | - |
| 1787904463 | 17.78° C | 46% | 1022 hPa | - | - | - | - |
| 1787903563 | 16.67° C | 51% | 1022.3 hPa | - | - | - | - |
| 1787902663 | 15° C | 56% | 1022.8 hPa | - | - | - | - |
| 1787901763 | 13.89° C | 60% | 1023.1 hPa | - | - | - | - |
| 1787900863 | 12.78° C | 62% | 1023.4 hPa | - | - | - | - |
| 1787899963 | 12.22° C | 64% | 1023.6 hPa | - | - | - | - |
| 1787899063 | 11.11° C | 65% | 1023.8 hPa | - | - | - | - |
| 1787898163 | 11.11° C | 65% | 1023.7 hPa | - | - | - | - |
| 1787897263 | 11.11° C | 65% | 1023.6 hPa | - | - | - | - |
| 1787896363 | 11.11° C | 65% | 1023.3 hPa | - | - | - | - |
| 1787895463 | 11.67° C | 64% | 1022.9 hPa | - | - | - | - |
| 1787894563 | 11.67° C | 63% | 1022.8 hPa | - | - | - | - |
| 1787893663 | 11.67° C | 63% | 1022.5 hPa | - | - | - | - |
| 1787892763 | 12.22° C | 63% | 1022.4 hPa | - | - | - | - |
* Rain since midnight (hover to see other rain measurements)
** Current wind speed in m/s (hover to see current wind gust speed)